DECAYED

STARLINK-4461, 53503 (Decayed)

Orbit data source: Space-Track

STARLINK-4461, 53503 was a payload satellite owned by SpaceX/Seattle (US) in LEO that was launched on Fri, 12 Aug 2022 UTC via an FALCON 9 launch vehicle from the Air Force Western Test Range (AFWTR). Payload-class satellites include a variety of spacecraft equipped with specific instruments for various scientific and technological missions. These include communications satellites like Starlink; space stations such as the ISS; scientific satellites like the Hubble; Earth observation satellites from companies like Planet Labs, Umbra, and HawkEye 360; GPS; miniature CubeSats for education and research; and military/defense satellites.

Not visible in the next 10 days
Identifier
53503, 2022-099AQ
Orbit
Decayed
Country
Flag of USUS
Related business
Manufacturer
SpaceX/Seattle
Mission
Decayed Commercial Communications
Bus & Motor
STARLINK, Unknown motor
Mass
300 kg wet, ~275 kg dry
Launch date (UTC)
2022-08-12 (4 years ago)
Launch vehicle
FALCON 9
Launch site
Air Force Western Test Range (AFWTR)
Object type
Payload
Rocket body
Debris
Shape & HBR
Box + 1 Pan, 10.1 m
Radar Cross Section
13.562 m², Large (>1 m²)

Expand to show TLE details & history
Last TLE update: 2 months ago

TLE from 2 months ago
0 STARLINK-4461
1 53503U 22099AQ  26094.26453266  .08323040  27129-5  27305-3 0  9999
2 53503  97.6231 245.5060 0009772 266.8280  93.1903 16.43956985201661
Epoch: 2026-04-04T06:20Z
TLE epoch observation values (Epoch: 2026-04-04T06:20:55.621Z)
Latitude
-0.00003°
Longitude
-42.31255°
Altitude
158.909 km
Speed
7.811 km/s
True Right ascension
16h 22m 01s
True Declination
0° 00' 00"
Sunlit
Object was in full shadow at epoch
Visualization orbit readout
Latitude
Unknown
Longitude
Unknown
Altitude
Unknown
Speed
Unknown
Apparent Right ascension
Unknown
Apparent Declination
Unknown
Sunlit
N/A
Visualization observer readout
Local Sidereal Time
08:00:24
Azimuth
Unknown
Elevation
Unknown
Doppler factor
Unknown
Orbital elements
Apogee altitude
158.491 km
Perigee altitude
145.729 km
Semi-major axis
6,530.247 km
Eccentricity
0.00098
Inclination
97.6231°
RAAN
245.506°
Arg. of periapsis
266.828°
True anomaly
93.3021°
Mean anomaly
93.1903°
Eccentric anomaly
93.2462°
Mean motion
4.11291 °/min
Orbital period
87.53 mins
BSTAR
0.00027305
Loading maneuver chart data...
Computing Atmospheric mass density...
Loading historical data...
Loading historical data...
Loading historical data...
Loading historical data...
Loading historical data...
Loading historical data...
Loading historical data...

Documentation

Showing up to 5 results
|